North Bend, OR

11:15 PM PDT on September 28, 2016 (GMT -0700)
North Bend Municipal

Weather History for KOTH - August, 2013

Change the Weather History Date:

Wednesday, August 28, 2013

  Actual Average Record
Temperature  
Mean Temperature 66 °F 59 °F  
Max Temperature 73 °F 66 °F 78 °F (1921)
Min Temperature 59 °F 52 °F 38 °F (1902)
Degree Days  
Heating Degree Days 0 6  
Month to date heating degree days 68 168  
Since 1 June heating degree days 333 632  
Since 1 July heating degree days 163 365  
Cooling Degree Days 1 0  
Month to date cooling degree days 4 0  
Year to date cooling degree days 8 0  
Since 1 June cooling degree days 4 0  
Growing Degree Days 15 (Base 50)    
Moisture  
Dew Point 63 °F    
Average Humidity 92    
Maximum Humidity 100    
Minimum Humidity 73    
Precipitation  
Precipitation 0.01 in 0.03 in 0.68 in (1953)
Month to date precipitation 0.26 0.53  
Year to date precipitation 17.75 37.15  
Sea Level Pressure  
Sea Level Pressure 29.89 in    
Wind  
Wind Speed 4 mph (West)    
Max Wind Speed 15 mph    
Max Gust Speed -    
Visibility 10 miles    
Events      
T = Trace of Precipitation, MM = Missing Value Source: NWS Daily Summary

Daily Weather History Graph

Daily Weather History Graph

Search for Another Location

Airport or City:

Trip Planner

Search our weather history database for the weather conditions in past years. The results will help you decide how hot, cold, wet, or windy it might be!

Date:

Astronomy

Aug. 28, 2013 Rise Set
Actual Time 6:36 AM PDT 7:58 PM PDT
Civil Twilight 6:07 AM PDT 8:28 PM PDT
Nautical Twilight 5:31 AM PDT 9:03 PM PDT
Astronomical Twilight 4:53 AM PDT 9:41 PM PDT
Moon No Moon Rise 2:46 PM PDT (8/28)
Length of Visible Light 14h 20m
Length of Day
13h 21m
Last Quarter, 46% of the Moon is Illuminated
Aug 28
Last Quarter
Sep 5
New
Sep 12
First Quarter
Sep 19
Full
Sep 26
Last Quarter

Hourly Weather History & Observations

Time (PDT) Temp. Dew Point Humidity Pressure Visibility Wind Dir Wind Speed Gust Speed Precip Events Conditions
12:15 AM 62.6 °F 62.6 °F 100% 29.87 in 10.0 mi Calm Calm - N/A   Mostly Cloudy
12:35 AM 62.6 °F 62.6 °F 100% 29.87 in 10.0 mi Calm Calm - N/A   Overcast
12:55 AM 62.6 °F 62.6 °F 100% 29.87 in 10.0 mi Calm Calm - N/A   Overcast
1:15 AM 62.6 °F 60.8 °F 94% 29.87 in 10.0 mi Calm Calm - N/A   Overcast
1:35 AM 62.6 °F 60.8 °F 94% 29.87 in 10.0 mi SSE 4.6 mph - N/A   Overcast
1:55 AM 62.6 °F 60.8 °F 94% 29.87 in 10.0 mi Calm Calm - N/A   Overcast
2:15 AM 62.6 °F 62.6 °F 100% 29.87 in 10.0 mi WSW 4.6 mph - N/A   Overcast
2:35 AM 60.8 °F - N/A% 29.87 in 10.0 mi Calm Calm - N/A   Overcast
2:55 AM 60.8 °F 60.8 °F 100% 29.86 in 10.0 mi Calm Calm - N/A   Scattered Clouds
3:15 AM 60.8 °F 60.8 °F 100% 29.86 in 10.0 mi Calm Calm - N/A   Mostly Cloudy
3:35 AM 60.8 °F 60.8 °F 100% 29.86 in 10.0 mi Calm Calm - N/A   Scattered Clouds
3:55 AM 60.8 °F 60.8 °F 100% 29.85 in 10.0 mi Calm Calm - N/A   Mostly Cloudy
4:15 AM 60.8 °F - N/A% 29.85 in 10.0 mi Calm Calm - N/A   Partly Cloudy
4:35 AM 60.8 °F - N/A% 29.85 in 10.0 mi Calm Calm - N/A   Clear
4:55 AM 60.8 °F - N/A% 29.85 in 10.0 mi Calm Calm - N/A   Clear
5:15 AM 60.8 °F - N/A% 29.84 in 10.0 mi Calm Calm - N/A   Clear
5:35 AM 60.8 °F - N/A% 29.85 in 10.0 mi Calm Calm - N/A   Clear
5:55 AM 60.8 °F - N/A% 29.85 in 10.0 mi Calm Calm - N/A   Mostly Cloudy
6:15 AM 60.8 °F - N/A% 29.85 in 10.0 mi Calm Calm - N/A   Overcast
6:35 AM 59.0 °F - N/A% 29.86 in 10.0 mi Calm Calm - N/A   Overcast
6:55 AM 59.0 °F - N/A% 29.87 in 10.0 mi Calm Calm - N/A   Overcast
7:15 AM 60.8 °F - N/A% 29.87 in 10.0 mi Calm Calm - N/A   Overcast
7:35 AM 60.8 °F - N/A% 29.87 in 7.0 mi ESE 3.5 mph - N/A   Overcast
7:55 AM 60.8 °F - N/A% 29.87 in 10.0 mi SE 3.5 mph - N/A   Overcast
8:15 AM 62.6 °F - N/A% 29.88 in 10.0 mi SE 4.6 mph - N/A   Overcast
8:35 AM 62.6 °F - N/A% 29.87 in 10.0 mi SE 6.9 mph - N/A   Overcast
8:55 AM 64.4 °F 64.4 °F 100% 29.88 in 10.0 mi ESE 4.6 mph - N/A   Scattered Clouds
9:15 AM 66.2 °F 66.2 °F 100% 29.88 in 10.0 mi ESE 5.8 mph - N/A   Partly Cloudy
9:35 AM 64.4 °F - N/A% 29.88 in 10.0 mi North 3.5 mph - N/A   Mostly Cloudy
9:55 AM 66.2 °F - N/A% 29.88 in 10.0 mi WSW 6.9 mph - N/A   Mostly Cloudy
10:15 AM 68.0 °F 66.2 °F 94% 29.89 in 10.0 mi West 8.1 mph - N/A   Mostly Cloudy
10:35 AM 69.8 °F 68.0 °F 94% 29.89 in 10.0 mi WSW 9.2 mph - N/A   Mostly Cloudy
10:55 AM 69.8 °F 64.4 °F 83% 29.89 in 10.0 mi West 8.1 mph - N/A   Mostly Cloudy
11:15 AM 69.8 °F 64.4 °F 83% 29.89 in 10.0 mi WSW 9.2 mph - N/A   Mostly Cloudy
11:35 AM 69.8 °F 68.0 °F 94% 29.89 in 10.0 mi WSW 10.4 mph - N/A   Mostly Cloudy
11:55 AM 71.6 °F 66.2 °F 83% 29.89 in 10.0 mi WSW 11.5 mph - N/A   Mostly Cloudy
12:15 PM 71.6 °F 69.8 °F 94% 29.90 in 10.0 mi West 16.1 mph - N/A   Partly Cloudy
12:35 PM 71.6 °F - N/A% 29.90 in 10.0 mi West 16.1 mph - N/A   Mostly Cloudy
12:55 PM 71.6 °F 68.0 °F 88% 29.90 in 10.0 mi West 15.0 mph - N/A   Mostly Cloudy
1:15 PM 69.8 °F - N/A% 29.90 in 10.0 mi West 12.7 mph - N/A   Mostly Cloudy
1:35 PM 71.6 °F - N/A% 29.90 in 10.0 mi WSW 17.3 mph - N/A   Mostly Cloudy
1:55 PM 71.6 °F - N/A% 29.90 in 10.0 mi WSW 12.7 mph - N/A   Partly Cloudy
2:15 PM 71.6 °F - N/A% 29.90 in 10.0 mi WSW 10.4 mph - N/A   Scattered Clouds
2:35 PM 71.6 °F - N/A% 29.90 in 10.0 mi West 9.2 mph - N/A   Overcast
2:55 PM 69.8 °F - N/A% 29.91 in 10.0 mi West 9.2 mph - N/A   Mostly Cloudy
3:15 PM 69.8 °F - N/A% 29.91 in 10.0 mi West 8.1 mph - N/A   Partly Cloudy
3:35 PM 69.8 °F 60.8 °F 73% 29.91 in 10.0 mi WNW 8.1 mph - N/A   Clear
3:55 PM 69.8 °F 60.8 °F 73% 29.90 in 10.0 mi West 5.8 mph - N/A   Partly Cloudy
4:15 PM 69.8 °F 60.8 °F 73% 29.90 in 10.0 mi West 6.9 mph - N/A   Clear
4:35 PM 66.2 °F 60.8 °F 83% 29.91 in 10.0 mi WNW 8.1 mph - N/A   Clear
4:55 PM 66.2 °F 60.8 °F 83% 29.91 in 10.0 mi WNW 9.2 mph - N/A   Clear
5:15 PM 64.4 °F 64.4 °F 100% 29.91 in 10.0 mi WNW 8.1 mph - N/A   Clear
5:35 PM 64.4 °F - N/A% 29.91 in 10.0 mi WNW 6.9 mph - N/A   Clear
5:55 PM 64.4 °F - N/A% 29.91 in 10.0 mi WNW 8.1 mph - N/A   Clear
6:15 PM 62.6 °F - N/A% 29.91 in 10.0 mi WNW 9.2 mph - N/A   Clear
6:35 PM 62.6 °F - N/A% 29.90 in 10.0 mi West 10.4 mph - N/A   Partly Cloudy
6:55 PM 62.6 °F - N/A% 29.91 in 10.0 mi West 9.2 mph - N/A   Mostly Cloudy
7:15 PM 62.6 °F - N/A% 29.91 in 10.0 mi Calm Calm - N/A   Mostly Cloudy
7:35 PM 62.6 °F - N/A% 29.90 in 10.0 mi NNE 4.6 mph - N/A   Overcast
7:55 PM 62.6 °F - N/A% 29.91 in 10.0 mi Calm Calm - N/A   Overcast
8:15 PM 62.6 °F - N/A% 29.92 in 10.0 mi Calm Calm - N/A   Overcast
8:35 PM 64.4 °F - N/A% 29.92 in 10.0 mi Calm Calm - N/A   Overcast
8:55 PM 64.4 °F - N/A% 29.92 in 10.0 mi Calm Calm - N/A   Overcast
9:15 PM 64.4 °F - N/A% 29.93 in 10.0 mi Calm Calm - N/A   Overcast
9:35 PM 64.4 °F - N/A% 29.93 in 10.0 mi Calm Calm - N/A   Overcast
9:55 PM 64.4 °F - N/A% 29.93 in 10.0 mi Calm Calm - N/A   Overcast
10:15 PM 64.4 °F - N/A% 29.92 in 10.0 mi Calm Calm - N/A   Overcast
10:35 PM 64.4 °F - N/A% 29.92 in 10.0 mi Calm Calm - N/A   Overcast
10:55 PM 62.6 °F - N/A% 29.92 in 10.0 mi Calm Calm - N/A   Mostly Cloudy
11:15 PM 62.6 °F 62.6 °F 100% 29.92 in 10.0 mi Calm Calm - N/A   Mostly Cloudy
11:35 PM 62.6 °F - N/A% 29.92 in 10.0 mi Calm Calm - N/A   Mostly Cloudy
11:55 PM 62.6 °F 60.8 °F 94% 29.91 in 10.0 mi Calm Calm - N/A   Overcast